Regional Weather Roundup
Issued by NWS Jackson, KY

Home | Current Version | Previous Version | Graphics & Text | Print | Product List | Glossary On
Versions: 1 2 3 4 5 6 7 8 9 10 11 12 13 14 15 16 17 18 19 20 21 22 23 24 25 26 27 28 29 30 31 32 33 34 35 36 37 38 39 40 41 42 43 44 45 46 47 48 49 50
000
ASUS43 KJKL 181305
RWRJKL

EAST KENTUCKY HOURLY WEATHER ROUNDUP
NATIONAL WEATHER SERVICE JACKSON KY
900 AM EDT FRI APR 18 2014

NOTE: "FAIR" INDICATES FEW OR NO CLOUDS BELOW 12,000 FEET WITH
NO SIGNIFICANT WEATHER AND/OR OBSTRUCTIONS TO VISIBILITY.

* THESE REPORTS ARE NOT UNDER NWS QUALITY CONTROL AND MAY NOT
  REPORT WEATHER SUCH AS PRECIPITATION AND FOG.

KYZ079-080-083-085-087-088-110-112-115-119-120-181400
...EASTERN KENTUCKY...

CITY           SKY/WX    TMP DP  RH WIND       PRES   REMARKS
JACKSON        CLOUDY    54  27  35 S3        30.34R
LONDON         CLOUDY    52  38  58 CALM      30.34R
SOMERSET*      CLOUDY    52  39  62 CALM      30.35R
MONTICELLO*    CLOUDY    54  46  74 CALM      30.35R
MIDDLESBORO*   CLOUDY    49  39  69 CALM      30.36S
HARLAN APT*    CLOUDY    52  28  40 CALM      30.35S
BLACK MTN*       N/A     46  25  42 S3          N/A
PIKEVILLE APT* SUNNY     52  25  35 S5        30.34R
BIG SANDY*     CLOUDY    53  26  35 S3        30.34S
$$

KYZ035-036-041-042-044-050-067-078-099-181400
...CENTRAL KENTUCKY...

CITY           SKY/WX    TMP DP  RH WIND       PRES   REMARKS
MT STERLING*   CLOUDY    52  36  54 SW6       30.34R
FLEMING/MASON* CLOUDY    49  39  69 S5        30.32S
DANVILLE*      CLOUDY    52  41  66 S5        30.34R
LEXINGTON      CLOUDY    54  40  59 S7        30.32R
FRANKFORT      PTSUNNY   49  43  80 CALM      30.31R
$$

KYZ091>093-OHZ055-061-077-WVZ005-015-034-035-042-181400
...SOUTHERN OHIO/WEST VIRGINIA...

CITY           SKY/WX    TMP DP  RH WIND       PRES   REMARKS
COVINGTON      PTSUNNY   53  41  63 CALM      30.29S
COLUMBUS       CLOUDY    52  31  44 CALM      30.30R
DAYTON         PTSUNNY   51  42  71 NE3       30.31R
WILMINGTON     CLOUDY    53  39  59 CALM      30.30R
HUNTINGTON     CLOUDY    53  24  32 S8        30.31R
CHARLESTON     CLOUDY    53  28  38 S5        30.32R
PINEVILLE*     CLOUDY    50  34  53 MISG      30.41F
BECKLEY        CLOUDY    46  29  51 SE5       30.36S
BLUEFIELD      PTSUNNY   48  28  46 N3        30.36F
$$

VAZ002-007-008-TNZ017-027-036-066-071-181400
...SOUTHWEST VIRGINIA/EAST TENNESSEE...

CITY           SKY/WX    TMP DP  RH WIND       PRES   REMARKS
WISE*          CLOUDY    52  23  32 SW5       30.35F
ABINGDON*      CLOUDY    49  26  41 E8        30.36S
BRISTOL        CLOUDY    47  28  47 E3        30.36S
KNOXVILLE      CLOUDY    51  35  54 CALM      30.34R
OAK RIDGE      CLOUDY    49  41  74 E3        30.35R
CROSSVILLE     CLOUDY    51  40  65 CALM      30.33R
NASHVILLE      CLOUDY    56  45  66 CALM      30.31R
$$

...KEY TO REMARKS...
VSB - VISIBILITY IN MILES
WCI - WIND CHILL INDEX
HX  - HEAT INDEX

$$



USA.gov is the U.S. government's official web portal to all federal, state and local government web resources and services.